Location: Muenchen
(48.1800°N, 11.5800°E)
Time: 02:09:04
(UTC+02:00)

ISS - Visible Passes

Search period start: 29 May 2015 00:00
Search period end: 08 June 2015 00:00
Orbit: 399 x 404 km, 51.6° (Epoch: 28 May)

Date Brightness Start Highest point End Pass type
(mag) Time Alt. Az. Time Alt. Az. Time Alt. Az.
29 May -1.8 00:32:42 27° E 00:32:42 27° E 00:34:22 10° ENE visible
29 May -2.3 02:05:13 15° W 02:07:39 47° N 02:10:50 10° ENE visible
29 May -2.5 03:41:12 10° WNW 03:44:24 52° NNE 03:47:37 10° E visible
29 May -1.2 23:40:13 16° E 23:40:13 16° E 23:41:02 10° ENE visible
30 May -2.7 01:12:42 26° W 01:14:19 57° NNW 01:17:33 10° ENE visible
30 May -2.2 02:47:53 10° WNW 02:51:03 45° N 02:54:13 10° E visible
30 May -3.4 04:24:22 10° WNW 04:27:38 77° SSW 04:30:54 10° ESE visible
30 May -1.9 22:45:46 20° ESE 22:45:46 20° ESE 22:47:31 10° E visible
31 May -3.3 00:17:46 10° WSW 00:21:01 78° NNW 00:24:17 10° ENE visible
31 May -2.1 01:54:33 10° WNW 01:57:41 43° N 02:00:50 10° ENE visible
31 May -3.1 03:31:06 10° WNW 03:34:22 73° NNE 03:37:38 10° ESE visible
31 May -1.5 21:50:04 10° S 21:51:47 14° SE 21:53:35 10° ESE visible
31 May -3.5 23:24:31 10° WSW 23:27:45 71° SSE 23:31:00 10° ENE visible
01 Jun -2.2 01:01:09 10° W 01:04:18 45° N 01:07:28 10° ENE visible
01 Jun -2.6 02:37:50 10° WNW 02:41:03 55° NNE 02:44:16 10° E visible
01 Jun -3.0 04:14:19 10° WNW 04:17:26 42° SSW 04:20:32 10° SE visible
01 Jun -3.1 22:31:26 10° SW 22:34:32 43° SSE 22:37:39 10° ENE visible
02 Jun -2.6 00:07:44 10° W 00:10:56 54° NNW 00:14:09 10° ENE visible
02 Jun -2.2 01:44:31 10° WNW 01:47:40 46° N 01:50:50 10° E visible
02 Jun -3.5 03:20:58 10° WNW 03:24:13 69° SSW 03:27:28 10° ESE visible
02 Jun -3.1 23:14:20 10° WSW 23:17:35 71° NNW 23:20:51 10° ENE visible
03 Jun -2.1 00:51:08 10° WNW 00:54:16 43° N 00:57:25 10° ENE visible
03 Jun -3.3 02:27:40 10° WNW 02:30:56 79° NNE 02:34:12 10° ESE visible
03 Jun -2.2 04:04:26 10° W 04:07:05 23° SW 04:09:42 10° SSE visible
03 Jun -3.5 22:21:02 10° WSW 22:24:16 79° SSE 22:27:32 10° ENE visible
03 Jun -2.1 23:57:43 10° W 00:00:51 44° N 00:04:00 10° ENE visible
04 Jun -2.8 01:34:21 10° WNW 01:37:35 58° NNE 01:40:49 10° E visible
04 Jun -2.9 03:10:53 10° WNW 03:13:56 37° SSW 03:16:59 10° SE visible
04 Jun -2.4 23:04:16 10° W 23:07:27 51° N 23:10:39 10° ENE visible
05 Jun -2.3 00:41:01 10° WNW 00:44:11 47° N 00:47:22 10° E visible
05 Jun -3.4 02:17:28 10° WNW 02:20:42 62° SSW 02:20:43 62° SSW visible
05 Jun -2.9 22:10:49 10° W 22:14:03 66° NNW 22:17:19 10° ENE visible
05 Jun -2.1 23:47:38 10° WNW 23:50:46 43° N 23:53:54 10° ENE visible
06 Jun -3.4 01:24:08 10° WNW 01:27:24 86° NNE 01:27:52 63° ESE visible
06 Jun -2.1 22:54:11 10° WNW 22:57:19 43° N 23:00:27 10° ENE visible
07 Jun -2.9 00:30:47 10° WNW 00:34:02 62° NNE 00:35:38 26° E visible
07 Jun -1.1 02:07:21 10° W 02:08:10 16° W 02:08:10 16° W visible
07 Jun -2.3 22:00:42 10° W 22:03:52 49° N 22:07:03 10° ENE visible
07 Jun -2.4 23:37:26 10° WNW 23:40:37 49° N 23:43:38 11° E visible
